GW6448 Weather Reports


time (UTC)temp
C
wind
direction
speed
KPH
gust
KPH
rain 1hr
cm
rain 24hr
cm
rain mn
cm
humidity
%
barometer
mb
20260510121009 17 244 1.6 4.8 0.00 0.00 0.00 71 1014.0
20260510120508 17 209 0.0 3.2 0.00 0.00 0.00 73 1013.9
20260510120007 17 192 1.6 3.2 0.00 0.00 0.00 76 1014.0
20260510115507 16 103 0.0 3.2 0.00 0.00 0.00 80 1013.9
20260510115002 15 236 0.0 3.2 0.00 0.00 0.00 81 1013.8
20260510114512 15 236 0.0 3.2 0.00 0.00 0.00 81 1013.8
20260510114010 14 236 0.0 3.2 0.00 0.00 0.00 82 1013.6
20260510113505 13 236 0.0 3.2 0.00 0.00 0.00 82 1013.6
20260510113014 13 244 1.6 3.2 0.00 0.00 0.00 82 1013.5
20260510112504 13 249 1.6 3.2 0.00 0.00 0.00 83 1013.5
20260510112003 12 261 3.2 4.8 0.00 0.00 0.00 84 1013.4
20260510111513 12 254 1.6 6.4 0.00 0.00 0.00 86 1013.4
20260510111006 11 311 3.2 6.4 0.00 0.00 0.00 87 1013.4
20260510110504 11 255 1.6 4.8 0.00 0.00 0.00 88 1013.3
20260510110011 11 254 1.6 4.8 0.00 0.00 0.00 87 1013.3
20260510105507 11 241 1.6 3.2 0.00 0.00 0.00 88 1013.3
20260510105003 11 238 3.2 3.2 0.00 0.00 0.00 88 1013.2
20260510104513 10 213 1.6 3.2 0.00 0.00 0.00 87 1013.1
20260510104009 11 215 1.6 3.2 0.00 0.00 0.00 87 1013.0
20260510103502 11 246 1.6 3.2 0.00 0.00 0.00 86 1012.9
20260510103012 11 240 1.6 3.2 0.00 0.00 0.00 86 1012.9
20260510102507 11 223 1.6 3.2 0.00 0.00 0.00 86 1012.7
20260510102003 11 250 1.6 3.2 0.00 0.00 0.00 86 1012.7
20260510101516 11 252 1.6 3.2 0.00 0.00 0.00 86 1012.5
20260510101008 11 265 1.6 3.2 0.00 0.00 0.00 85 1012.5
20260510100507 11 262 1.6 3.2 0.00 0.00 0.00 84 1012.4
20260510100015 11 259 1.6 3.2 0.00 0.00 0.00 84 1012.4
20260510095508 11 246 1.6 3.2 0.00 0.00 0.00 84 1012.4
20260510095002 12 266 1.6 3.2 0.00 0.00 0.00 83 1012.4
20260510094514 12 254 1.6 3.2 0.00 0.00 0.00 81 1012.3
20260510094007 12 251 1.6 3.2 0.00 0.00 0.00 81 1012.3
20260510093507 12 257 1.6 3.2 0.00 0.00 0.00 82 1012.3
20260510093016 12 252 1.6 3.2 0.00 0.00 0.00 82 1012.2
20260510092512 12 289 1.6 3.2 0.00 0.00 0.00 86 1012.1
20260510092002 11 283 1.6 3.2 0.00 0.00 0.00 87 1012.2
20260510091540 11 240 1.6 3.2 0.00 0.00 0.00 89 1012.2
20260510091007 11 230 1.6 3.2 0.00 0.00 0.00 90 1012.2
20260510090504 11 265 1.6 4.8 0.00 0.00 0.00 90 1012.2
20260510090020 11 245 1.6 4.8 0.00 0.00 0.00 91 1012.1
20260510085504 11 241 3.2 4.8 0.00 0.00 0.00 93 1012.1
20260510085007 11 252 1.6 3.2 0.00 0.00 0.00 92 1012.1
20260510084522 11 256 1.6 3.2 0.00 0.00 0.00 91 1012.0
20260510084002 11 244 1.6 3.2 0.00 0.00 0.00 91 1012.0
20260510083507 11 244 0.0 1.6 0.00 0.00 0.00 91 1012.0
20260510083023 11 244 0.0 1.6 0.00 0.00 0.00 91 1012.0
20260510082501 11 244 0.0 3.2 0.00 0.00 0.00 90 1012.0
20260510082006 11 240 1.6 3.2 0.00 0.00 0.00 90 1011.9
20260510081533 11 231 1.6 3.2 0.00 0.00 0.00 90 1011.9
20260510081003 11 251 1.6 3.2 0.00 0.00 0.00 90 1011.9
20260510080508 11 250 1.6 3.2 0.00 0.00 0.00 90 1011.8
20260510080022 11 250 1.6 3.2 0.00 0.00 0.00 90 1011.7
20260510075503 11 246 1.6 3.2 0.00 0.00 0.00 89 1011.7
20260510075006 12 231 1.6 3.2 0.00 0.00 0.00 90 1011.7
20260510074524 12 225 3.2 3.2 0.00 0.00 0.00 90 1011.7
20260510074007 12 229 1.6 3.2 0.00 0.00 0.00 90 1011.6
20260510073513 12 249 1.6 3.2 0.00 0.00 0.00 90 1011.6
20260510073035 12 238 1.6 3.2 0.00 0.00 0.00 89 1011.6
20260510072502 12 258 0.0 3.2 0.00 0.00 0.00 89 1011.5
20260510072007 12 227 0.0 3.2 0.00 0.00 0.00 89 1011.5
20260510071533 12 241 1.6 3.2 0.00 0.00 0.00 89 1011.4
20260510071006 12 259 1.6 3.2 0.00 0.00 0.00 88 1011.4
20260510070509 12 269 1.6 3.2 0.00 0.00 0.00 89 1011.3
20260510070032 12 236 1.6 3.2 0.00 0.00 0.00 88 1011.3
20260510065503 12 289 1.6 4.8 0.00 0.00 0.00 87 1011.3
20260510065009 12 263 1.6 4.8 0.00 0.00 0.00 87 1011.4
20260510064546 12 267 3.2 4.8 0.00 0.00 0.00 87 1011.3
20260510064004 12 266 1.6 3.2 0.00 0.00 0.00 86 1011.2
20260510063510 12 246 1.6 3.2 0.00 0.00 0.00 86 1011.2
20260510063038 13 275 1.6 3.2 0.00 0.00 0.00 85 1011.2
20260510062506 13 266 1.6 3.2 0.00 0.00 0.00 84 1011.3
20260510062009 13 242 1.6 3.2 0.00 0.00 0.00 85 1011.3
20260510061512 13 238 1.6 3.2 0.00 0.00 0.00 84 1011.3
20260510061007 13 237 1.6 3.2 0.00 0.00 0.00 84 1011.2
20260510060509 13 248 1.6 3.2 0.00 0.00 0.00 84 1011.2
20260510060024 13 250 1.6 3.2 0.00 0.00 0.00 83 1011.2
20260510055507 13 256 1.6 3.2 0.00 0.00 0.00 83 1011.1
20260510055007 13 273 1.6 3.2 0.00 0.00 0.00 1011.2
20260510054508 13 269 1.6 3.2 0.00 0.00 0.00 81 1011.2
20260510054006 14 260 1.6 3.2 0.00 0.00 0.00 81 1011.2
20260510053513 14 265 1.6 4.8 0.00 0.00 0.00 80 1011.2
20260510053011 14 243 1.6 6.4 0.00 0.00 0.00 79 1011.2
20260510052506 15 265 1.6 6.4 0.00 0.00 0.00 79 1011.2
20260510052012 15 259 3.2 4.8 0.00 0.00 0.00 79 1011.2
20260510051513 15 249 1.6 4.8 0.00 0.00 0.00 78 1011.2
20260510051007 15 260 1.6 4.8 0.00 0.00 0.00 77 1011.2
20260510050509 15 227 1.6 4.8 0.00 0.00 0.00 77 1011.3
20260510050014 15 258 1.6 4.8 0.00 0.00 0.00 77 1011.2
20260510045510 15 254 1.6 4.8 0.00 0.00 0.00 77 1011.2
20260510045015 15 256 1.6 6.4 0.00 0.00 0.00 76 1011.2
20260510044514 15 264 3.2 6.4 0.00 0.00 0.00 76 1011.2
20260510044011 15 232 3.2 6.4 0.00 0.00 0.00 76 1011.2
20260510043504 15 248 3.2 11.3 0.00 0.00 0.00 76 1011.1
20260510043014 15 274 4.8 11.3 0.00 0.00 0.00 76 1011.1
20260510042503 15 276 3.2 11.3 0.00 0.00 0.00 76 1011.1
20260510042005 15 262 3.2 8.0 0.00 0.00 0.00 76 1011.1
20260510041518 15 267 1.6 4.8 0.00 0.00 0.00 76 1011.1
20260510041005 15 242 1.6 6.4 0.00 0.00 0.00 75 1011.1
20260510040504 15 261 1.6 6.4 0.00 0.00 0.00 75 1011.1
20260510040021 15 244 1.6 6.4 0.00 0.00 0.00 76 1011.2
20260510035503 15 254 1.6 3.2 0.00 0.00 0.00 77 1011.2
20260510035003 15 273 1.6 3.2 0.00 0.00 0.00 78 1011.3
20260510034503 15 266 1.6 3.2 0.00 0.00 0.00 78 1011.2
20260510034005 15 263 1.6 4.8 0.00 0.00 0.00 78 1011.2
20260510033506 15 276 1.6 4.8 0.00 0.00 0.00 78 1011.2
20260510033003 15 279 1.6 3.2 0.00 0.00 0.00 77 1011.1
20260510032505 15 279 0.0 3.2 0.00 0.00 0.00 77 1011.0
20260510032007 15 279 1.6 3.2 0.00 0.00 0.00 77 1010.9
20260510031503 15 259 0.0 6.4 0.00 0.00 0.00 1010.8
20260510031003 15 252 0.0 6.4 0.00 0.00 0.00 1010.7
20260510030504 15 257 1.6 6.4 0.00 0.00 0.00 77 1010.8
20260510030004 15 252 0.0 3.2 0.00 0.00 0.00 77 1010.8
20260510025504 15 274 1.6 3.2 0.00 0.00 0.00 77 1010.8
20260510025004 15 239 1.6 1.6 0.00 0.00 0.00 76 1010.7
20260510024504 15 228 1.6 1.6 0.00 0.00 0.00 76 1010.7
20260510024003 15 256 1.6 3.2 0.00 0.00 0.00 75 1010.6
20260510023507 15 274 0.0 3.2 0.00 0.00 0.00 75 1010.5
20260510023004 15 274 0.0 3.2 0.00 0.00 0.00 74 1010.6
20260510022503 15 274 0.0 3.2 0.00 0.00 0.00 74 1010.5
20260510022007 15 226 0.0 30.6 0.00 0.00 0.00 72 1010.4
20260510021506 16 226 0.0 30.6 0.00 0.00 0.00 72 1010.4
20260510021006 16 226 0.0 3.2 0.00 0.00 0.00 72 1010.4
20260510020506 16 226 0.0 3.2 0.00 0.00 0.00 72 1010.3
20260510020006 16 226 1.6 3.2 0.00 0.00 0.00 72 1010.2
20260510015503 16 259 0.0 3.2 0.00 0.00 0.00 72 1010.2
20260510015007 16 259 0.0 3.2 0.00 0.00 0.00 73 1010.1
20260510014506 16 231 1.6 3.2 0.00 0.00 0.00 73 1010.0
20260510014003 16 252 1.6 3.2 0.00 0.00 0.00 73 1010.0
20260510013507 16 256 1.6 3.2 0.00 0.00 0.00 72 1009.9
20260510013006 16 269 1.6 3.2 0.00 0.00 0.00 71 1009.9
20260510012505 16 254 0.0 1.6 0.00 0.00 0.00 72 1009.6
20260510012007 16 238 1.6 3.2 0.00 0.00 0.00 71 1009.7
20260510011508 16 238 0.0 3.2 0.00 0.00 0.00 70 1009.6
20260510011007 16 238 0.0 3.2 0.00 0.00 0.00 69 1009.6
20260510010502 17 238 1.6 1.6 0.00 0.00 0.00 69 1009.5
20260510010007 17 237 0.0 3.2 0.00 0.00 0.00 68 1009.4
20260510005505 17 229 0.0 3.2 0.00 0.00 0.00 67 1009.5
20260510005001 17 229 0.0 3.2 0.00 0.00 0.00 66 1009.4
20260510004507 17 253 0.0 3.2 0.00 0.00 0.00 66 1009.4
20260510004013 17 253 0.0 3.2 0.00 0.00 0.00 65 1009.3
20260510003505 18 253 0.0 1.6 0.00 0.00 0.00 65 1009.2
20260510003008 18 253 1.6 1.6 0.00 0.00 0.00 64 1009.1
20260510002506 18 253 1.6 3.2 0.00 0.00 0.00 62 1009.1
20260510002002 19 253 0.0 3.2 0.00 0.00 0.00 61 1009.0
20260510001512 20 253 0.0 3.2 0.00 0.00 0.00 59 1009.0
20260510001006 20 253 0.0 3.2 0.00 0.00 0.00 58 1009.0
20260510000504 20 253 0.0 3.2 0.00 0.00 0.00 57 1009.0
20260510000011 21 253 0.0 3.2 0.00 0.00 0.00 55 1009.0
20260509235509 21 253 0.0 3.2 0.00 0.00 0.00 54 1008.9
20260509235003 21 253 0.0 3.2 0.00 0.00 0.00 54 1008.8
20260509234526 21 253 0.0 4.8 0.00 0.00 0.00 51 1008.8
20260509234006 22 231 0.0 6.4 0.00 0.00 0.00 52 1008.8
20260509233503 22 246 0.0 6.4 0.00 0.00 0.00 51 1008.8
20260509233029 22 246 1.6 6.4 0.00 0.00 0.00 49 1008.7
20260509232506 22 240 1.6 4.8 0.00 0.00 0.00 49 1008.7
20260509232002 22 212 3.2 4.8 0.00 0.00 0.00 48 1008.7
20260509231516 23 254 3.2 4.8 0.00 0.00 0.00 47 1008.7
20260509231006 23 290 1.6 6.4 0.00 0.00 0.00 47 1008.8
20260509230503 23 280 3.2 9.7 0.00 0.00 0.00 46 1008.8
20260509230016 23 222 4.8 9.7 0.00 0.00 0.00 46 1008.8
20260509225510 23 258 3.2 11.3 0.00 0.00 0.00 46 1008.8
20260509225004 23 263 4.8 11.3 0.00 0.00 0.00 45 1008.8
20260509224524 23 253 4.8 20.9 0.00 0.00 0.00 45 1008.6
20260509224011 23 243 4.8 20.9 0.00 0.00 0.00 45 1008.6
20260509223505 23 161 6.4 20.9 0.00 0.00 0.00 46 1008.7
20260509223019 23 222 4.8 16.1 0.00 0.00 0.00 47 1008.7
20260509222508 23 298 3.2 12.9 0.00 0.00 0.00 47 1008.7
20260509222004 23 192 4.8 14.5 0.00 0.00 0.00 48 1008.6
20260509221520 22 217 6.4 14.5 0.00 0.00 0.00 49 1008.7
20260509221002 22 203 3.2 11.3 0.00 0.00 0.00 49 1008.7
20260509220504 22 193 4.8 14.5 0.00 0.00 0.00 48 1008.7
20260509220025 23 254 6.4 14.5 0.00 0.00 0.00 48 1008.7
20260509215503 23 250 3.2 16.1 0.00 0.00 0.00 47 1008.7
20260509215004 23 309 8.0 16.1 0.00 0.00 0.00 47 1008.8
20260509214522 23 242 9.7 16.1 0.00 0.00 0.00 47 1008.7
20260509214003 23 298 8.0 17.7 0.00 0.00 0.00 45 1008.6
20260509213508 24 223 4.8 20.9 0.00 0.00 0.00 44 1008.6
20260509213025 25 302 9.7 20.9 0.00 0.00 0.00 42 1008.7
20260509212504 25 301 4.8 22.5 0.00 0.00 0.00 43 1008.7
20260509212013 24 171 4.8 27.4 0.00 0.00 0.00 42 1008.5
20260509211523 24 271 8.0 27.4 0.00 0.00 0.00 43 1008.6
20260509211004 24 292 6.4 20.9 0.00 0.00 0.00 43 1008.5
20260509210506 24 196 11.3 27.4 0.00 0.00 0.00 42 1008.5
20260509210026 24 240 11.3 27.4 0.00 0.00 0.00 42 1008.4
20260509205504 25 274 8.0 20.9 0.00 0.00 0.00 44 1008.4
20260509205009 24 213 8.0 22.5 0.00 0.00 0.00 44 1008.4
20260509204527 23 302 9.7 22.5 0.00 0.00 0.00 45 1008.5
20260509204009 23 188 6.4 16.1 0.00 0.00 0.00 45 1008.5
20260509203507 23 230 4.8 16.1 0.00 0.00 0.00 46 1008.5
20260509203033 23 261 4.8 25.7 0.00 0.00 0.00 46 1008.5
20260509202506 23 227 11.3 25.7 0.00 0.00 0.00 45 1008.5
20260509202009 23 203 9.7 20.9 0.00 0.00 0.00 44 1008.5
20260509201526 24 331 4.8 20.9 0.00 0.00 0.00 45 1008.5
20260509201008 24 277 8.0 19.3 0.00 0.00 0.00 45 1008.4
20260509200510 23 234 4.8 20.9 0.00 0.00 0.00 46 1008.5
20260509200008 23 277 9.7 20.9 0.00 0.00 0.00 46 1008.5
20260509195506 23 250 8.0 19.3 0.00 0.00 0.00 46 1008.5
20260509195012 23 229 6.4 20.9 0.00 0.00 0.00 47 1008.7
20260509194509 23 261 9.7 20.9 0.00 0.00 0.00 48 1008.7
20260509194005 23 198 6.4 16.1 0.00 0.00 0.00 50 1008.9
20260509193509 22 177 4.8 16.1 0.00 0.00 0.00 48 1008.9
20260509193010 22 239 6.4 22.5 0.00 0.00 0.00 50 1009.0
20260509192506 22 227 9.7 22.5 0.00 0.00 0.00 49 1009.0
20260509192012 23 205 4.8 20.9 0.00 0.00 0.00 48 1009.1
20260509191515 23 176 9.7 20.9 0.00 0.00 0.00 50 1009.2
20260509191009 23 284 6.4 16.1 0.00 0.00 0.00 49 1009.3
20260509190511 23 350 8.0 20.9 0.00 0.00 0.00 50 1009.4
20260509190017 22 283 11.3 20.9 0.00 0.00 0.00 50 1009.6
20260509185507 22 277 8.0 17.7 0.00 0.00 0.00 52 1009.6
20260509185009 22 217 8.0 14.5 0.00 0.00 0.00 52 1009.7
20260509184521 22 281 6.4 19.3 0.00 0.00 0.00 51 1009.7
20260509184009 22 271 3.2 20.9 0.00 0.00 0.00 51 1009.8
20260509183508 22 227 6.4 20.9 0.00 0.00 0.00 50 1009.8
20260509183027 22 271 9.7 19.3 0.00 0.00 0.00 48 1009.7
20260509182507 22 287 8.0 25.7 0.00 0.00 0.00 49 1009.9
20260509182010 22 277 9.7 25.7 0.00 0.00 0.00 50 1009.9
20260509181518 22 313 9.7 30.6 0.00 0.00 0.00 52 1010.0
20260509181007 22 280 16.1 30.6 0.00 0.00 0.00 50 1010.1
20260509180507 22 295 9.7 24.1 0.00 0.00 0.00 52 1010.2
20260509180021 21 236 9.7 27.4 0.00 0.00 0.00 54 1010.2
20260509175517 21 292 8.0 27.4 0.00 0.00 0.00 54 1010.3
20260509175010 21 255 9.7 27.4 0.00 0.00 0.00 54 1010.4
20260509174520 21 303 11.3 20.9 0.00 0.00 0.00 57 1010.4
20260509174010 20 323 6.4 16.1 0.00 0.00 0.00 60 1010.5
20260509173506 20 221 4.8 16.1 0.00 0.00 0.00 61 1010.6
20260509173026 20 277 6.4 20.9 0.00 0.00 0.00 60 1010.6
20260509172510 20 224 6.4 20.9 0.00 0.00 0.00 60 1010.6
20260509172004 21 265 3.2 16.1 0.00 0.00 0.00 60 1010.5
20260509171528 20 219 3.2 17.7 0.00 0.00 0.00 59 1010.6
20260509171014 20 244 9.7 17.7 0.00 0.00 0.00 58 1010.7
20260509170504 21 289 6.4 24.1 0.00 0.00 0.00 58 1010.7
20260509170022 21 250 9.7 24.1 0.00 0.00 0.00 56 1010.8
20260509165510 21 153 4.8 20.9 0.00 0.00 0.00 57 1010.7
20260509165003 21 269 4.8 20.9 0.00 0.00 0.00 58 1010.9
20260509164521 21 225 8.0 17.7 0.00 0.00 0.00 57 1010.8
20260509164011 20 298 8.0 20.9 0.00 0.00 0.00 59 1010.9
20260509163507 20 225 11.3 20.9 0.00 0.00 0.00 60 1011.0
20260509163004 20 219 6.4 19.3 0.00 0.00 0.00 61 1011.0
20260509162504 19 325 6.4 19.3 0.00 0.00 0.00 61 1011.0
20260509162006 19 259 8.0 24.1 0.00 0.00 0.00 60 1011.1
20260509161507 19 213 8.0 24.1 0.00 0.00 0.00 60 1011.0
20260509161007 19 250 12.9 24.1 0.00 0.00 0.00 60 1011.1
20260509160508 20 282 11.3 24.1 0.00 0.00 0.00 60 1011.0
20260509160006 19 266 8.0 20.9 0.00 0.00 0.00 62 1011.2
20260509155504 19 288 9.7 25.7 0.00 0.00 0.00 61 1011.2
20260509155009 19 311 9.7 25.7 0.00 0.00 0.00 60 1011.2
20260509154503 19 270 6.4 24.1 0.00 0.00 0.00 61 1011.2
20260509154006 19 297 11.3 24.1 0.00 0.00 0.00 59 1011.2
20260509153507 20 225 9.7 20.9 0.00 0.00 0.00 58 1011.4
20260509153016 20 255 12.9 20.9 0.00 0.00 0.00 57 1011.4
20260509152507 20 259 9.7 20.9 0.00 0.00 0.00 58 1011.3
20260509152004 19 267 9.7 24.1 0.00 0.00 0.00 59 1011.4
20260509151506 18 286 9.7 29.0 0.00 0.00 0.00 59 1011.4
20260509151006 18 205 11.3 29.0 0.00 0.00 0.00 59 1011.5
20260509150503 18 214 11.3 17.7 0.00 0.00 0.00 60 1011.4
20260509150008 17 255 4.8 16.1 0.00 0.00 0.00 61 1011.3
20260509145504 17 238 8.0 14.5 0.00 0.00 0.00 59 1011.3
20260509145003 18 180 4.8 17.7 0.00 0.00 0.00 60 1011.3
20260509144516 17 309 6.4 19.3 0.00 0.00 0.00 60 1011.4
20260509144007 17 171 8.0 20.9 0.00 0.00 0.00 62 1011.5
20260509143507 17 268 6.4 25.7 0.00 0.00 0.00 63 1011.7
20260509143008 17 255 12.9 25.7 0.00 0.00 0.00 62 1011.8
20260509142505 16 150 9.7 17.7 0.00 0.00 0.00 63 1011.9
20260509142004 16 254 8.0 17.7 0.00 0.00 0.00 64 1011.9
20260509141522 16 265 6.4 17.7 0.00 0.00 0.00 64 1012.0
20260509141007 16 29 4.8 16.1 0.00 0.00 0.00 66 1012.0
20260509140503 16 233 8.0 16.1 0.00 0.00 0.00 66 1011.9
20260509140012 16 298 6.4 16.1 0.00 0.00 0.00 66 1012.0
20260509135507 16 219 6.4 14.5 0.00 0.00 0.00 66 1012.0
20260509135004 15 288 6.4 14.5 0.00 0.00 0.00 66 1012.1
20260509134513 15 204 6.4 17.7 0.00 0.00 0.00 66 1012.2
20260509134006 15 188 9.7 17.7 0.00 0.00 0.00 66 1012.2
20260509133502 15 233 8.0 17.7 0.00 0.00 0.00 66 1012.3
20260509133014 15 283 12.9 17.7 0.00 0.00 0.00 65 1012.4
20260509132508 15 221 8.0 17.7 0.00 0.00 0.00 67 1012.4
20260509132004 15 234 6.4 17.7 0.00 0.00 0.00 67 1012.4
20260509131516 15 271 8.0 17.7 0.00 0.00 0.00 66 1012.5
20260509131009 15 177 4.8 14.5 0.00 0.00 0.00 67 1012.3
20260509130503 15 195 6.4 14.5 0.00 0.00 0.00 68 1012.3
20260509130019 14 242 9.7 17.7 0.00 0.00 0.00 67 1012.3
20260509125514 14 259 9.7 22.5 0.00 0.00 0.00 67 1012.3
20260509125006 14 283 6.4 22.5 0.00 0.00 0.00 67 1012.3
20260509124518 14 273 6.4 19.3 0.00 0.00 0.00 68 1012.3
20260509124003 14 286 4.8 17.7 0.00 0.00 0.00 68 1012.3
20260509123503 14 240 6.4 17.7 0.00 0.00 0.00 68 1012.2
20260509123019 13 274 4.8 14.5 0.00 0.00 0.00 70 1012.2
20260509122502 13 280 6.4 17.7 0.00 0.00 0.00 69 1012.3
20260509122007 13 264 8.0 17.7 0.00 0.00 0.00 70 1012.2
20260509121533 13 205 4.8 16.1 0.00 0.00 0.00 71 1012.1